This is the latest recevied weather packets stored in our database for station/object KV4OP. If no packets are shown the sender has not sent any weather packets the latest 10 day(s).
| Time | Temp. | Humidity | Pressure | Rain* | Wind** | Luminosity | Snow |
|---|---|---|---|---|---|---|---|
| 1778184968 | 35° C | 40% | 1013.3 hPa | 0 mm | - | - | - |
| 1778184657 | 35.56° C | 39% | 1013.4 hPa | 0 mm | - | - | - |
| 1778184357 | 35.56° C | 39% | 1013.4 hPa | 0 mm | - | - | - |
| 1778184058 | 35.56° C | 38% | 1013.6 hPa | 0 mm | - | - | - |
| 1778183755 | 35.56° C | 40% | 1013.5 hPa | 0 mm | - | - | - |
| 1778183455 | 35.56° C | 42% | 1013.6 hPa | 0 mm | - | - | - |
| 1778183155 | 35.56° C | 39% | 1013.7 hPa | 0 mm | - | - | - |
| 1778182853 | 35.56° C | 41% | 1013.8 hPa | 0 mm | - | - | - |
| 1778182553 | 34.44° C | 43% | 1013.9 hPa | 0 mm | - | - | - |
| 1778182255 | 34.44° C | 42% | 1013.9 hPa | 0 mm | - | - | - |
| 1778181952 | 35° C | 43% | 1013.8 hPa | 0 mm | - | - | - |
| 1778181651 | 35° C | 43% | 1013.9 hPa | 0 mm | - | - | - |
| 1778181352 | 35° C | 42% | 1013.9 hPa | 0 mm | - | - | - |
| 1778181050 | 35° C | 43% | 1014.1 hPa | 0 mm | - | - | - |
| 1778180749 | 34.44° C | 43% | 1014.1 hPa | 0 mm | - | - | - |
| 1778180449 | 34.44° C | 47% | 1014.3 hPa | 0 mm | - | - | - |
| 1778180148 | 34.44° C | 43% | 1014.3 hPa | 0 mm | - | - | - |
| 1778179845 | 35° C | 41% | 1014.4 hPa | 0 mm | - | - | - |
| 1778179545 | 34.44° C | 45% | 1014.5 hPa | 0 mm | - | - | - |
| 1778179245 | 34.44° C | 45% | 1014.6 hPa | 0 mm | - | - | - |
| 1778178946 | 34.44° C | 44% | 1014.8 hPa | 0 mm | - | - | - |
| 1778178644 | 33.89° C | 42% | 1014.8 hPa | 0 mm | - | - | - |
| 1778178342 | 33.89° C | 42% | 1015 hPa | 0 mm | - | - | - |
| 1778178040 | 33.89° C | 42% | 1014.9 hPa | 0 mm | - | - | - |
| 1778177739 | 34.44° C | 41% | 1015 hPa | 0 mm | - | - | - |
* Rain latest hour (hover to see other rain measurements)
** Current wind speed in m/s (hover to see current wind gust speed)